{"data":{"norad_id":68983,"epoch":"2026-09-20T04:02:05.752032Z","epoch_age_seconds":48069,"freshness":"FRESH","line1":"1 68983U 26100D   26263.16812213  .00000733  00000+0  79624-4 0  9990","line2":"2 68983  97.7245 158.7099 0003299 161.6616 198.4721 14.91042120 20850","mean_motion":14.9104212,"eccentricity":0.0003299,"inclination_deg":97.7245,"raan_deg":158.7099,"arg_perigee_deg":161.6616,"mean_anomaly_deg":198.4721,"bstar":7.9624e-5,"rev_number":2085,"period_min":96.576748616598,"perigee_km":592.38447216934,"apogee_km":596.985139997,"semimajor_km":6972.8218060832,"source":"CELESTRAK","updated_at":"2026-09-20T09:00:24.598310Z"}}